When you browse on this site, cookies collect data to enhance your experience and personalize the content and advertising you see.
Visit our Privacy Policy to learn more. By continuing to use the site, you agree to this use of cookies and data.
  • In Austria
  • List of Countries
  • For 7 days
  • Water Temperature
  • Weather Map
  • News
  • Weather Widgets
  • user-avatar
    Login

    Hourly Weather Samroung

    Today, 8 December, Sunday

    Time Temperature Precipitation Wind Pressure Humidity
    00:00 +21°C° 0 mm 3 mps 759 mmHg 70%
    01:00 +21°C° 0 mm 3 mps 759 mmHg 69%
    02:00 +21°C° 0 mm 3 mps 759 mmHg 71%
    03:00 +21°C° 0 mm 3 mps 759 mmHg 72%
    04:00 +20°C° 0 mm 4 mps 759 mmHg 73%
    05:00 +20°C° 0 mm 4 mps 759 mmHg 72%
    06:00 +20°C° 0 mm 4 mps 759 mmHg 72%
    07:00 +21°C° 0 mm 3 mps 760 mmHg 70%
    08:00 +22°C° 0 mm 3 mps 760 mmHg 64%
    09:00 +25°C° 0 mm 3 mps 760 mmHg 58%
    10:00 +27°C° 0 mm 3 mps 761 mmHg 53%
    11:00 +28°C° 0 mm 3 mps 760 mmHg 51%
    12:00 +29°C° 0 mm 3 mps 759 mmHg 49%
    13:00 +30°C° 0 mm 3 mps 759 mmHg 47%
    14:00 +30°C° 0 mm 3 mps 758 mmHg 49%
    15:00 +30°C° 0 mm 3 mps 758 mmHg 51%
    16:00 +29°C° 0 mm 2 mps 757 mmHg 53%
    17:00 +27°C° 0 mm 2 mps 758 mmHg 60%
    18:00 +25°C° 0 mm 2 mps 758 mmHg 66%
    19:00 +23°C° 0 mm 2 mps 759 mmHg 73%
    20:00 +23°C° 0 mm 2 mps 759 mmHg 72%
    21:00 +23°C° 0 mm 2 mps 760 mmHg 71%
    22:00 +21°C° 0 mm 2 mps 760 mmHg 69%
    23:00 +21°C° 0 mm 2 mps 760 mmHg 69%

    Tomorrow, 9 December, Monday

    Time Temperature Precipitation Wind Pressure Humidity
    00:00 +21°C° 0 mm 2 mps 759 mmHg 69%
    01:00 +21°C° 0 mm 3 mps 759 mmHg 69%
    02:00 +21°C° 0 mm 3 mps 759 mmHg 69%
    03:00 +21°C° 0 mm 3 mps 759 mmHg 70%
    04:00 +21°C° 0 mm 4 mps 759 mmHg 70%
    05:00 +21°C° 0 mm 4 mps 759 mmHg 71%
    06:00 +21°C° 0 mm 4 mps 759 mmHg 72%
    07:00 +21°C° 0 mm 4 mps 759 mmHg 72%
    08:00 +23°C° 0 mm 4 mps 760 mmHg 66%
    09:00 +26°C° 0 mm 3 mps 760 mmHg 61%
    10:00 +28°C° 0 mm 3 mps 760 mmHg 55%
    11:00 +29°C° 0 mm 3 mps 759 mmHg 52%
    12:00 +30°C° 0 mm 3 mps 758 mmHg 50%
    13:00 +31°C° 0 mm 3 mps 758 mmHg 47%
    14:00 +30°C° 0 mm 3 mps 757 mmHg 49%
    15:00 +30°C° 0 mm 3 mps 757 mmHg 50%
    16:00 +30°C° 0 mm 3 mps 756 mmHg 52%
    17:00 +28°C° 0 mm 2 mps 757 mmHg 59%
    18:00 +26°C° 0 mm 2 mps 757 mmHg 67%
    19:00 +24°C° 0 mm 1 mps 758 mmHg 74%
    20:00 +23°C° 0 mm 1 mps 758 mmHg 73%
    21:00 +23°C° 0 mm 1 mps 758 mmHg 72%
    22:00 +23°C° 0 mm 1 mps 759 mmHg 71%
    23:00 +23°C° 0 mm 1 mps 758 mmHg 71%

    Day after tomorrow, 10 December, Tuesday

    Time Temperature Precipitation Wind Pressure Humidity
    00:00 +22°C° 0 mm 1 mps 758 mmHg 71%
    01:00 +22°C° 0 mm 1 mps 758 mmHg 71%
    02:00 +22°C° 0 mm 1 mps 758 mmHg 72%
    03:00 +21°C° 0 mm 2 mps 757 mmHg 73%
    04:00 +21°C° 0 mm 2 mps 757 mmHg 73%
    05:00 +21°C° 0 mm 2 mps 757 mmHg 73%
    06:00 +21°C° 0 mm 2 mps 758 mmHg 74%
    07:00 +21°C° 0 mm 2 mps 758 mmHg 74%
    08:00 +25°C° 0 mm 2 mps 758 mmHg 66%
    09:00 +27°C° 0 mm 2 mps 759 mmHg 58%
    10:00 +29°C° 0 mm 2 mps 759 mmHg 50%
    11:00 +30°C° 0 mm 2 mps 758 mmHg 47%
    12:00 +32°C° 0 mm 2 mps 757 mmHg 44%
    13:00 +34°C° 0 mm 2 mps 756 mmHg 41%
    14:00 +32°C° 0 mm 2 mps 756 mmHg 45%
    15:00 +31°C° 0 mm 2 mps 755 mmHg 48%
    16:00 +30°C° 0 mm 1 mps 755 mmHg 51%
    17:00 +28°C° 0 mm 1 mps 755 mmHg 59%
    18:00 +26°C° 0 mm 1 mps 756 mmHg 68%
    19:00 +24°C° 0 mm 1 mps 756 mmHg 76%
    20:00 +24°C° 0 mm 1 mps 757 mmHg 75%
    21:00 +23°C° 0 mm 1 mps 757 mmHg 74%
    22:00 +23°C° 0 mm 1 mps 758 mmHg 73%
    23:00 +23°C° 0 mm 1 mps 758 mmHg 73%

    11 December, Wednesday

    Time Temperature Precipitation Wind Pressure Humidity
    00:00 +23°C° 0 mm 1 mps 757 mmHg 72%
    01:00 +22°C° 0 mm 1 mps 757 mmHg 71%
    02:00 +22°C° 0 mm 1 mps 757 mmHg 72%
    03:00 +22°C° 0 mm 1 mps 757 mmHg 72%
    04:00 +22°C° 0 mm 1 mps 757 mmHg 73%
    05:00 +22°C° 0 mm 1 mps 757 mmHg 73%
    06:00 +22°C° 0 mm 1 mps 757 mmHg 73%
    07:00 +21°C° 0 mm 2 mps 758 mmHg 73%
    08:00 +25°C° 0 mm 2 mps 758 mmHg 64%
    09:00 +28°C° 0 mm 2 mps 758 mmHg 55%
    10:00 +30°C° 0 mm 2 mps 758 mmHg 47%
    11:00 +31°C° 0 mm 2 mps 758 mmHg 44%
    12:00 +32°C° 0 mm 2 mps 757 mmHg 42%
    13:00 +34°C° 0 mm 2 mps 756 mmHg 39%
    14:00 +34°C° 0 mm 2 mps 756 mmHg 42%
    15:00 +32°C° 0 mm 2 mps 755 mmHg 45%
    16:00 +31°C° 0 mm 2 mps 755 mmHg 48%
    17:00 +29°C° 0 mm 2 mps 755 mmHg 56%
    18:00 +27°C° 0 mm 2 mps 756 mmHg 64%
    19:00 +24°C° 0 mm 1 mps 756 mmHg 73%
    20:00 +24°C° 0 mm 1 mps 756 mmHg 73%
    21:00 +24°C° 0 mm 1 mps 757 mmHg 73%
    22:00 +24°C° 0 mm 1 mps 757 mmHg 73%
    23:00 +23°C° 0 mm 1 mps 757 mmHg 72%

    12 December, Thursday

    Time Temperature Precipitation Wind Pressure Humidity
    00:00 +23°C° 0 mm 1 mps 757 mmHg 71%
    01:00 +23°C° 0 mm 1 mps 757 mmHg 70%
    02:00 +23°C° 0 mm 1 mps 757 mmHg 71%
    03:00 +23°C° 0 mm 2 mps 757 mmHg 72%
    04:00 +21°C° 0 mm 2 mps 756 mmHg 73%
    05:00 +23°C° 0 mm 2 mps 757 mmHg 73%
    06:00 +23°C° 0 mm 2 mps 757 mmHg 73%
    07:00 +23°C° 0 mm 2 mps 758 mmHg 74%
    08:00 +25°C° 0 mm 2 mps 758 mmHg 67%
    09:00 +28°C° 0 mm 2 mps 758 mmHg 60%
    10:00 +30°C° 0 mm 2 mps 758 mmHg 53%
    11:00 +31°C° 0 mm 2 mps 758 mmHg 51%
    12:00 +32°C° 0 mm 2 mps 757 mmHg 48%
    13:00 +34°C° 0 mm 3 mps 756 mmHg 46%
    14:00 +33°C° 0 mm 3 mps 756 mmHg 49%
    15:00 +33°C° 0 mm 3 mps 756 mmHg 52%
    16:00 +31°C° 0 mm 3 mps 755 mmHg 55%
    17:00 +29°C° 0 mm 2 mps 756 mmHg 62%
    18:00 +27°C° 0 mm 2 mps 756 mmHg 70%
    19:00 +25°C° 0 mm 1 mps 757 mmHg 78%
    20:00 +25°C° 0 mm 1 mps 757 mmHg 76%
    21:00 +25°C° 0 mm 1 mps 758 mmHg 75%
    22:00 +25°C° 0 mm 1 mps 758 mmHg 74%
    23:00 +25°C° 0 mm 1 mps 758 mmHg 72%

    13 December, Friday

    Time Temperature Precipitation Wind Pressure Humidity
    00:00 +25°C° 0 mm 1 mps 757 mmHg 71%
    01:00 +25°C° 0 mm 2 mps 757 mmHg 70%
    02:00 +24°C° 0 mm 2 mps 757 mmHg 71%
    03:00 +24°C° 0 mm 2 mps 756 mmHg 71%
    04:00 +24°C° 0 mm 2 mps 756 mmHg 71%
    05:00 +24°C° 0 mm 2 mps 757 mmHg 72%
    06:00 +24°C° 0 mm 2 mps 757 mmHg 73%
    07:00 +24°C° 0 mm 2 mps 757 mmHg 74%
    08:00 +26°C° 0 mm 2 mps 758 mmHg 67%
    09:00 +28°C° 0 mm 2 mps 758 mmHg 60%
    10:00 +30°C° 0 mm 2 mps 758 mmHg 53%
    11:00 +31°C° 0 mm 3 mps 757 mmHg 51%
    12:00 +31°C° 0 mm 3 mps 757 mmHg 50%
    13:00 +33°C° 0 mm 3 mps 756 mmHg 48%
    14:00 +33°C° 0 mm 3 mps 756 mmHg 49%
    15:00 +31°C° 0 mm 3 mps 756 mmHg 50%
    16:00 +31°C° 0 mm 2 mps 755 mmHg 51%
    17:00 +29°C° 0 mm 2 mps 756 mmHg 57%
    18:00 +27°C° 0 mm 2 mps 756 mmHg 64%
    19:00 +26°C° 0 mm 2 mps 757 mmHg 71%
    20:00 +26°C° 0 mm 2 mps 757 mmHg 71%
    21:00 +26°C° 0 mm 2 mps 757 mmHg 71%
    22:00 +25°C° 0 mm 2 mps 758 mmHg 71%
    23:00 +25°C° 0 mm 2 mps 757 mmHg 70%
    Show more